Preview of NWS' New Version of Forecast
This preview is not operational and should not be used for support decisions.

Regional Weather Roundup (RWR)

Issued by Gray - Portland, ME (GYX)

                            
102 
ASUS41 KGYX 180310
RWRGYX
WEATHER ROUNDUP FOR MAINE AND NEW HAMPSHIRE
NATIONAL WEATHER SERVICE GRAY ME
1000 PM EST SAT FEB 17 2018

MEZ002-005-006-010-012-015-018-020-021-024-026-027-029-180400-
MAINE
  
CITY           SKY/WX    TMP DP  RH WIND       PRES   REMARKS
PORTLAND       LGT SNOW  33  29  85 S16G32    30.16F VSB 3/4          
SANFORD        LGT SNOW  30  28  92 S3        30.15F FOG              
BAR HARBOR     CLOUDY    29  21  72 SE6       30.25F                  
WISCASSET      CLOUDY    35  25  66 VRB7      30.19F                  
ROCKLAND       CLOUDY    35  27  72 S15G22    30.21F                  
FRYEBURG       CLOUDY    28  18  66 CALM      30.15F                  
LEWISTONAUBURN MIX PCPN  28  22  78 CALM      30.15F                  
AUGUSTA        CLOUDY    26  18  71 SE6       30.16F                  
WATERVILLE     MOCLDY    26  19  74 CALM      30.12F                  
BANGOR         CLOUDY    25  16  68 SE6       30.21F                  
GREENVILLE       N/A     19  10  68 SE9       30.06F                  
MILLINOCKET    CLOUDY    21   8  57 E6        30.19F                  
HOULTON        FAIR      20   1  43 S9        30.18F                  
PRESQUE ISLE   FAIR      18   3  52 S12       30.15F WCI   5          
FRENCHVILLE    FAIR      16   2  54 S9        30.07F                  
CARIBOU        FAIR      19   1  45 S10G21    30.12F WCI   7          
$$

NHZ002-005-008-009-011-012-014-180400-
NEW HAMPSHIRE
  
CITY           SKY/WX    TMP DP  RH WIND       PRES   REMARKS
PORTSMOUTH     LGT SNOW  31  29  92 S9        30.14F FOG              
ROCHESTER      LGT SNOW  30  29  96 S5        30.13F FOG              
NASHUA         LGT SNOW  28  28 100 CALM      30.13F FOG              
MANCHESTER     LGT SNOW  30  28  92 S3        30.12F FOG              
CONCORD        LGT SNOW  29  25  85 S6        30.13F FOG              
LACONIA        FLURRIES  30  20  66 S10       30.14F                  
PLYMOUTH       CLOUDY    28  17  62 CALM      30.14S                  
BERLIN         CLOUDY    26  13  57 S10       30.05F WCI  16          
WHITEFIELD     CLOUDY    29  11  47 SW7       30.04F                  
JAFFREY        LGT SNOW  28  27  96 CALM      30.07F FOG              
KEENE          LGT SNOW  28  26  92 W5        30.13R FOG              
LEBANON        LGT SNOW  29  24  82 S9        30.10R                  
MT WASHINGTON  CLOUDY     5   1  85 SW23G38     N/A  WCI -17          
$$

VTZ005-007-008-180400-
VERMONT
  
CITY           SKY/WX    TMP DP  RH WIND       PRES   REMARKS
ST JOHNSBURY     N/A     30  12  47 MISG      30.04F                  
MONTPELIER     CLOUDY    27  20  75 S12       30.06F WCI  17          
BURLINGTON     CLOUDY    33  17  51 S10G25    30.03F                  
$$

MAZ007-012-024-CTZ003-RIZ002-NYZ038-NYZ072-180400-
SOUTHERN NEW ENGLAND AND NY
  
CITY           SKY/WX    TMP DP  RH WIND       PRES   REMARKS
BOSTON         LGT SNOW  32  30  92 SE10      30.16F FOG              
WORCESTER      LGT SNOW  27  25  92 SE6       30.08F VSB 3/4          
NANTUCKET      LGT RAIN  36  35  96 E16       30.17F                  
PROVIDENCE     LGT SNOW  33  33 100 SE5       30.16F VSB 1            
HARTFORD       LGT SNOW  29  29 100 CALM      30.11F VSB 1            
ALBANY         LGT SNOW  30  26  85 S12       30.08F FOG              
NEW YORK CITY  LGT SNOW  33  32  96 E5        30.07F VSB 1            
$$

ANZ081-ANZ082-ANZ150-NHZ014-MEZ023>029-180400-
COASTAL MARINE OBSERVATIONS
  
STATION/POSITION TIME  TEMP    WIND        PRES    WAVE
                       AIR SEA DIR/SP/G            HT/PER
                 (UTC) (F)     (DEG/KT/KT) (MB)    (FT/S)
MOUNT DESERT ROC 0300   33     170/ 20/ 23 1024.6F
MATINICUS ROCK   0200   34     180/ 24/ 26 1023.8F
ISLE OF SHOALS   0200   35     170/ 26/ 29 1022.1F
JEFFREYS LEDGE   0236      42                N/A     5/ 5
GEORGES BANK BUO 0150   29 42              1028.5   15/11
$$

.............KEY..............
   WCI - WIND CHILL
   TC  - TEMPERATURE IN CELSIUS
   VSB - VISIBILITY IN MILES
   HX  - HEAT INDEX
   FAIR- INDICATES FEW OR NO CLOUDS BELOW 12,000 FT, WITH NO 
         SIGNIFICANT WEATHER AND/OR OBSTRUCTIONS TO VISIBILITY.